Probability
0 0 0 0 0 0 0 0 0 0 0 0 0 0 0 0 0 0 0 0 0 0 0 0 0 0 0 0 0 0 0 0 0 0 0 0 0 0
0 0 0 0 0 0 0 0 0 0 0 0 0 0 0 0 0 0 0 0 0 0 0 0 0 0 0 0 0 0 0 0 0 0 0 0 0 0
0 0 0 0 0 0 0 0 0 0 0 0 0 0 0 0 0 0 0 0 0 0 0 0 0 0 0 0 0 0 0 0 0 0 0 0 0 0
0 0 0 0 0 0 0 0 0 0 0 0 0 0 0 0 0 0 0 0 0 0 0 0 0 0 0 0 0 0 0 0 0 0 0 0 0 0
0 0 0 0 0 0 0 0 0 0 0 0 0 0 0 0 0 0 0 0 0 0 0 0 0 0 0 0 0 0 0 0 0 0 0 0 0 0
0 0 0 0 0 0 0 0 0 0 0 0 0 0 0 0 0 0 0 0 0 0 0 0 0 0 0 0 0 0 0 0 0 0 0 0 0 0
0 0 0 0 0 0 0 0 0 0 0 0 0 0 0 0 0 0 0 0 0 0 0 0 0 0 0 0 0 0 0 0 0 0 0 0 0 0
0 0 0 0 0 0 0 0 0 0 0 0 0 0 0 0 0 0 0 0 0 0 0 0 0 0 0 0 0 0 0 0 0 0 0 0 0 0
0 0 0 0 0 0 0 0 0 0 0 0 0 0 0 0 0 0 0 0 0 0 0 0 0 0 0 0 0 0 0 0 0 0 0 0 0 0
0 0 0 0 0 0 0 0 0 0 0 0 0 0 0 0 0 0 0 0 0 0 0 0 0 0 0 0 0 0 0 0 0 0 0 0 0 0
0 0 0 0 0 0 0 0 0 0 0 0 0 0 0 0 0 0 0 0 0 0 0 0 0 0 0 0 0 0 0 0 0 0 0 0 0 0
0 0 0 0 0 0 0 0 0 0 0 0 0 0 0 0 0 0 0 0 0 0 0 0 0 0 0 0 0 0 0 0 0 0 0 0 0 0
0 0 0 0 0 0 0 0 0 0 0 0 0 0 0 0 0 0 0 0 0 0 0 0 0 0 0 0 0 0 0 0 0 0 0 0 0 0
0 0 0 0 0 0 0 0 0 0 0 0 0 0 0 0 0 0 0 0 0 0 0 0 0 0 0 0 0 0 0 0 0 0 0 0 0 0
0 0 0 0 0 0 0 0 0 0 0 0 0 0 0 0 0 0 0 0 0 0 0 0 0 0 0 0 0 0 0 0 0 0 0 0 0 0
0 0 0 0 0 0 0 0 0 0 0 0 0 0 0 0 0 0 0 0 0 0 0 0 0 0 0 0 0 0 0 0 0 0 0 0 0 0
0 0 0 0 0 0 0 0 0 0 0 0 0 0 0 0 0 0 0 0 0 0 0 0 0 0 0 0 0 0 0 0 0 0 0 0 0 0
0 0 0 0 0 0 0 0 0 0 0 0 0 0 0 0 0 0 0 0 0 0 0 0 0 0 0 0 0 0 0 0 0 0 0 0 0 0
0 0 0 0 0 0 0 0 0 0 0 0 0 0 0 0 0 0 0 0 0 0 0 0 0 0 0 0 0 0 0 0 0 0 0 0 0 0
0 0 0 0 0 0 0 0 0 0 0 0 0 0 0 0 0 0 0 0 0 0 0 0 0 0 0 0 0 0 0 0 0 0 0 0 0 0
0 0 0 0 0 0 0 0 0 0 0 0 0 0 0 0 0 0 0 0 0 0 0 0 0 0 0 0 0 0 0 0 0 0 0 0 0 0
0 0 0 0 0 0 0 0 0 0 0 0 0 0 0 0 0 0 0 0 0 0 0 0 0 0 0 0 0 0 0 0 0 0 0 0 0 0
0 0 0 0 0 0 0 0 0 0 0 0 0 0 0 0 0 0 0 0 0 0 0 0 0 0 0 0 0 0 0 0 0 0 0 0 0 0
Wind_Speed
7 7 6 6 6 6 6 7 8 10 7 6 4 5 4 4 8 6 6 12 14 13 12 10 10 10 11 12 14 16 17 18 20 21 21 22 22 23
6 8 8 7 6 6 6 6 7 9 9 4 5 6 7 8 12 7 7 15 14 12 11 8 8 9 11 14 16 18 19 20 21 22 23 23 23 23
8 9 10 9 7 7 6 6 7 7 10 7 5 6 7 8 8 6 6 5 5 8 6 5 6 9 13 16 18 20 22 23 24 24 25 24 24 23
10 10 11 9 9 7 6 7 6 6 8 11 7 6 7 7 7 6 4 3 1 1 1 4 8 11 15 18 21 23 24 25 26 27 27 26 25 22
10 10 11 10 10 7 7 6 6 7 7 9 10 7 6 6 5 3 0 2 2 2 4 6 10 14 18 21 24 26 27 27 28 29 27 25 23 20
10 10 10 10 10 8 7 6 7 8 9 9 9 7 6 5 3 2 2 2 2 2 5 7 11 16 20 24 27 29 29 29 29 28 26 23 20 18
10 10 11 15 15 10 9 8 9 9 9 9 9 7 6 4 3 3 3 2 2 2 3 4 7 8 12 20 25 25 24 24 24 24 23 20 19 19
11 11 12 13 14 17 19 20 18 15 12 10 8 8 6 4 3 4 4 2 1 2 3 5 7 10 12 13 17 12 11 17 20 22 22 22 23 26
10 10 11 11 14 10 16 21 20 22 21 14 10 8 5 4 5 5 3 3 2 2 2 4 7 9 13 16 21 13 17 22 24 26 28 31 33 34
10 11 11 12 11 14 15 15 15 13 12 7 5 5 4 5 5 6 7 7 4 3 4 4 6 8 12 14 28 28 30 31 33 35 37 38 38 37
11 11 12 11 15 19 15 14 14 9 5 3 5 6 9 11 11 9 7 5 4 4 5 3 4 6 9 13 20 34 36 36 37 38 40 41 40 36
11 11 14 14 18 20 13 11 10 6 4 8 11 13 12 12 11 6 4 5 4 3 3 3 4 5 6 10 13 14 20 33 36 36 36 34 31 22
10 9 9 17 19 18 14 9 6 1 6 9 10 9 9 8 8 7 5 3 4 4 2 3 3 4 4 5 10 13 13 14 16 22 29 32 29 22
9 8 10 17 18 16 11 7 4 6 6 8 8 8 8 8 7 7 8 8 8 8 7 5 3 4 6 8 9 10 12 12 13 14 15 24 28 28
9 15 17 16 14 9 10 8 6 6 7 8 9 8 8 8 8 8 9 10 10 10 8 7 6 6 8 11 11 10 10 11 11 11 12 12 12 12
10 12 15 13 10 9 8 6 6 7 7 9 9 9 8 7 7 6 7 6 8 9 8 9 8 9 10 10 10 10 8 8 8 10 11 11 10 9
11 7 6 7 8 7 6 6 7 7 9 8 9 9 8 8 7 5 5 6 7 8 7 6 7 7 8 7 10 11 11 10 9 8 10 11 9 7
9 7 7 7 7 7 7 6 7 7 7 8 8 8 8 7 7 5 5 5 6 6 6 5 5 7 9 10 10 11 10 10 9 8 8 11 10 7
7 7 7 7 7 7 7 7 7 7 7 7 8 7 7 7 6 5 5 5 6 6 5 4 4 5 10 11 9 9 10 9 8 9 8 7 8 5
8 7 7 7 7 7 7 7 6 7 7 7 7 7 7 6 5 5 5 5 5 5 6 6 6 6 7 8 6 5 8 9 9 10 7 7 7 9
8 8 7 7 6 7 7 7 7 7 7 6 7 7 6 6 5 5 5 6 5 5 6 6 6 9 6 6 7 6 6 9 9 8 7 6 5 4
8 8 7 7 6 6 6 6 6 6 7 6 6 6 5 5 5 5 4 4 4 5 7 6 6 7 7 8 8 6 6 7 10 10 7 5 5 5
8 7 7 6 6 5 5 6 7 6 5 5 5 5 5 4 4 4 4 5 6 7 7 6 6 7 7 8 8 6 7 5 3 4 5 5 8 13
Wind_Direction
305 296 289 281 274 268 264 265 279 290 287 275 274 270 267 271 273 268 255 270 267 247 238 236 240 249 258 263 265 264 263 262 261 259 257 256 256 256
300 295 290 285 280 274 268 264 261 274 282 262 261 271 280 285 286 279 263 274 264 246 234 234 244 256 264 268 267 265 263 261 258 256 253 251 250 250
302 298 292 286 280 275 271 269 265 265 279 281 264 270 270 270 277 273 267 256 245 235 226 244 262 271 274 275 274 271 267 262 257 254 250 246 245 243
306 302 297 295 284 277 272 270 268 264 273 284 282 274 264 263 264 269 269 246 181 120 10 314 300 293 288 284 279 273 266 260 254 249 245 241 239 237
302 299 297 298 293 284 276 273 272 276 268 278 281 272 266 259 258 258 127 62 73 41 357 331 316 306 297 289 281 273 263 254 246 241 237 233 228 225
303 299 297 297 290 284 286 278 282 283 278 274 274 271 265 253 229 200 129 70 42 13 353 335 319 310 301 294 284 273 259 246 235 226 220 215 213 209
308 305 304 305 307 311 309 299 292 284 278 271 267 264 256 237 211 158 133 125 55 357 322 325 318 310 308 301 293 276 253 230 212 202 196 193 187 173
308 309 308 303 311 317 311 305 297 288 280 268 260 250 245 218 168 145 139 150 121 346 332 335 336 329 322 314 311 287 209 180 171 167 164 157 144 134
303 306 308 307 312 305 307 305 298 289 279 266 249 236 221 189 154 141 122 99 74 339 329 355 346 343 338 345 7 61 105 121 129 131 128 121 117 114
302 299 299 303 305 311 309 302 298 295 287 267 224 209 194 153 135 124 120 105 78 22 16 22 353 350 351 4 30 60 81 94 102 106 106 105 104 104
310 308 307 305 307 314 312 304 305 310 334 67 109 114 117 118 122 122 126 120 92 34 17 30 351 347 3 17 32 53 68 80 89 95 99 100 99 96
313 310 311 310 312 315 312 305 306 324 54 79 83 84 88 88 85 91 112 117 109 86 17 26 358 349 17 21 32 41 58 69 76 82 87 91 94 96
310 311 309 312 316 315 314 306 302 35 91 90 88 85 81 77 72 66 60 71 90 89 78 53 27 22 52 50 43 44 51 60 66 72 75 80 84 91
307 307 308 315 320 321 326 339 63 97 96 94 90 86 84 81 75 73 73 71 75 85 84 79 73 64 80 78 68 58 57 59 67 74 77 80 81 82
316 321 325 326 329 332 345 19 73 91 95 93 89 87 86 88 87 83 81 83 84 85 82 72 72 74 80 89 89 81 78 67 65 76 79 80 84 89
328 325 327 331 343 349 0 39 67 79 91 93 93 92 91 88 84 85 90 88 91 84 72 69 68 78 90 90 93 89 79 87 87 83 87 86 84 87
328 331 344 349 360 9 23 50 72 82 88 94 98 97 94 92 87 76 79 82 88 94 90 77 74 77 78 84 93 92 92 88 85 86 90 90 78 76
345 351 359 2 7 15 29 51 68 80 89 96 98 99 99 100 96 82 73 80 87 88 90 90 98 97 90 72 67 90 87 87 86 83 87 96 86 65
358 1 8 11 13 21 33 50 66 77 86 95 100 101 102 103 102 94 84 84 82 79 75 74 83 99 105 99 74 82 102 97 92 85 77 81 85 69
2 5 11 15 19 25 35 47 62 73 81 88 93 99 104 106 103 99 93 89 83 80 76 69 66 71 90 97 92 68 86 111 109 101 91 80 76 70
359 4 11 17 23 29 38 47 57 67 76 82 89 96 99 101 101 97 98 98 84 82 86 81 85 90 83 79 84 66 44 60 100 114 111 98 80 60
357 1 9 18 25 32 39 47 54 61 68 76 82 88 92 96 100 100 103 101 93 95 96 92 86 85 84 93 95 89 79 74 78 79 69 102 135 144
357 359 6 14 23 33 41 47 53 56 63 70 75 83 92 95 94 100 107 107 107 107 103 96 90 90 94 102 104 100 100 94 74 52 17 39 116 112